Regional Weather Roundup
Issued by NWS

Home | Current Version | Previous Version | Graphics & Text | Print | Product List | Glossary On
Versions: 1 2 3 4 5 6 7 8 9 10 11 12 13 14 15 16 17 18 19 20 21 22 23 24 25 26 27 28 29 30 31 32 33 34 35 36 37 38 39 40 41 42 43 44 45 46 47 48 49 50
000
ASUS43 KOAX 280510
RWRNE

WEATHER ROUNDUP FOR NEBRASKA
NATIONAL WEATHER SERVICE OMAHA NE
1200 AM CDT TUE APR 28 2015

NOTES: SATELLITE DATA IS BEING USED TO AUGMENT CLOUD COVER ABOVE
       12000 FEET.
       "FAIR" INDICATES FEW OR NO CLOUDS BELOW 12,000 FEET WITH NO
       SIGNIFICANT WEATHER AND/OR OBSTRUCTIONS TO VISIBILITY.

  * THESE STATIONS DO NOT REPORT WEATHER SUCH AS RAIN...SNOW OR FOG.

NEZ001>004-019>022-054>056-280600-
NEBRASKA PANHANDLE

CITY           SKY/WX    TMP DP  RH WIND       PRES   REMARKS
SCOTTSBLUFF    CLOUDY    47  41  80 NW7       30.34R
ALLIANCE       PTCLDY    42  39  89 N9        30.33R
CHADRON        CLOUDY    45  41  86 NE3       30.36R
KIMBALL        CLOUDY    45  42  91 N7        30.32R
SIDNEY         CLOUDY    46  41  82 N13       30.32R
$$

NEZ057>060-069>072-079>082-280600-
SOUTHWEST NEBRASKA

CITY           SKY/WX    TMP DP  RH WIND       PRES   REMARKS
NORTH PLATTE   PTCLDY    51  39  63 N12       30.27R
IMPERIAL       PTCLDY    44  33  65 NW5       30.25R
LEXINGTON      CLEAR     41  33  75 CALM      30.23R
MCCOOK         CLEAR     46  35  65 N5        30.23R
OGALLALA       CLOUDY    52  42  68 NE15      30.28R
$$

NEZ005>010-023>029-035>040-094-280600-
NORTH CENTRAL NEBRASKA

CITY           SKY/WX    TMP DP  RH WIND       PRES   REMARKS
VALENTINE      MOCLDY    47  40  76 N13G21    30.32R
AINSWORTH      CLEAR     48  42  78 N16G23    30.30R
BROKEN BOW     PTCLDY    48  31  51 N13       30.24R
O`NEILL        PTCLDY    50  41  69 NW12      30.24S
ORD            PTCLDY    42  32  67 CALM      30.21R
THEDFORD       CLEAR     50  43  76 N13G18    30.29R
$$

NEZ041-046>049-061>064-073>077-083>087-280600-
SOUTH CENTRAL NEBRASKA

CITY           SKY/WX    TMP DP  RH WIND       PRES   REMARKS
GRAND ISLAND   PTCLDY    44  34  67 NW5       30.21R
AURORA         PTCLDY    44  35  68 N6        30.20R
HASTINGS       PTCLDY    43  36  76 W5        30.20R
HEBRON         PTCLDY    46  33  61 CALM      30.18R
HOLDREGE       PTCLDY    45  32  61 CALM      30.22R
KEARNEY *      PTCLDY    48  34  57 CALM      30.22S
YORK           PTCLDY    45  36  70 MISG      30.20R
$$

NEZ011>018-030>034-042>045-280600-
NORTHEAST NEBRASKA

CITY           SKY/WX    TMP DP  RH WIND       PRES   REMARKS
NORFOLK        PTCLDY    41  33  73 W3        30.19S
ALBION         PTCLDY    44  32  64 CALM      30.20S
BLAIR          PTCLDY    56  29  36 NE5       30.18R
COLUMBUS *     PTCLDY    48  30  49 CALM      30.21R
FREMONT        PTCLDY    49  38  63 CALM      30.19R
TEKAMAH        PTCLDY    46  33  60 NW7       30.18R
WAYNE          PTCLDY    41  28  59 CALM      30.21R
$$

NEZ050>053-065>068-078-088>093-280600-
SOUTHEAST NEBRASKA

CITY           SKY/WX    TMP DP  RH WIND       PRES   REMARKS
LINCOLN        PTCLDY    44  36  73 N6        30.19R
OMAHA EPPLEY   MOCLDY    46  39  76 N6        30.17S
BEATRICE       PTCLDY    46  36  69 NE5       30.17R
FALLS CITY     PTCLDY    52  35  52 N5        30.15R
NEBRASKA CITY  PTCLDY    55  26  33 N3        30.16S
PLATTSMOUTH    PTCLDY    55  29  37 N3        30.17S
$$

NEZ044-045-051>053-067-280600-
OMAHA AREA

CITY           SKY/WX    TMP DP  RH WIND       PRES   REMARKS
OMAHA EPPLEY   MOCLDY    46  39  76 N6        30.17S
BLAIR          PTCLDY    56  29  36 NE5       30.18R
FREMONT        PTCLDY    49  38  63 CALM      30.19R
MILLARD        PTCLDY    51  38  61 CALM      30.18R
OFFUTT AFB     PTCLDY    45  38  76 NW2       30.16S
PLATTSMOUTH    PTCLDY    55  29  37 N3        30.17S
WAHOO          FAIR      49  32  52 N5        30.19R
$$



USA.gov is the U.S. government's official web portal to all federal, state and local government web resources and services.